www.pogodaiklimat.ru
ПОГОДА в Оушн-Сити
Время
и дата
15:53 19.05
16:53 19.05
17:17 19.05
17:53 19.05
18:53 19.05
19:46 19.05
19:53 19.05
20:53 19.05
21:53 19.05
22:53 19.05
23:53 19.05
00:37 20.05
00:53 20.05
01:17 20.05
01:53 20.05
02:53 20.05
03:53 20.05
04:34 20.05
04:53 20.05
05:20 20.05
05:53 20.05
06:53 20.05
07:53 20.05
12:44 20.05
12:53 20.05
14:53 20.05
15:53 20.05
17:53 20.05
18:07 20.05
20:53 20.05
21:27 20.05
21:30 20.05
21:38 20.05
21:53 20.05
22:11 20.05
22:50 20.05
22:53 20.05
23:03 20.05
23:08 20.05
23:28 20.05
23:48 20.05
23:53 20.05
00:16 21.05
00:30 21.05
00:39 21.05
00:53 21.05
01:03 21.05
01:25 21.05
Ветер
(напр.,м/с)
Видим. Явления Облачность Т
(С)
Тd
(С)
f
(%)
Тe
(С)
Тes
(С)
Комфортность P
(гПа)
Po
(гПа)
Тmin
(С)
Tmax
(С)
R
(мм)
R24
(мм)
S
(см)
В 3 16 км 10/10 750 м +18.3 +13.3 73 +19 +19 1015.2 1014.6
В 4 16 км 10/10 690 м +17.2 +13.3 78 +17 +17 1015.3 1014.6
В 3 16 км 5/5 690 м +17.8 +13.3 75 +18 +19 1015.0
16 км ясно +17.2 +12.8 75 +17 +22 1015.5 1015.0
В 3 16 км ясно +15.6 +12.8 83 +15 +16 1015.7 1015.3 +15.6 +18.9
В 2 16 км 2/2 210 м +14.4 +12.2 87 +14 +14 1015.7
В 3 16 км 2/2 210 м +14.4 +12.2 87 +13 +13 1016.2 1015.7
СВ 2 16 км ясно +14.4 +11.7 84 +14 +14 1017.0 1016.7
В 3 16 км 2/2 990 м +14.4 +11.7 84 +13 +13 1017.2 1016.7
СВ 3 16 км 2/2 390 м +13.9 +11.1 83 +13 +13 1017.1 1016.7
В 5 16 км 8/8 300 м +13.9 +11.7 87 +12 +12 1017.0 1016.7
СВ 3 16 км 10/10 270 м +14.4 +11.7 84 +13 +13 1016.0
СВ 3 16 км 8/8 270 м +13.9 +11.7 87 +13 +13 1016.7 1016.0 +13.9 +15.6
СВ 3 16 км 5/5 300 м +13.9 +11.1 83 +13 +13 1016.0
СВ 3 16 км 2/2 270 м +13.9 +11.7 87 +13 +13 1016.3 1015.7
СВ 3 16 км 2/2 300 м +13.9 +11.7 87 +13 +13 1015.8 1015.3
СВ 3 16 км 2/2 330 м +13.9 +11.7 87 +13 +13 1015.7 1015.3
СВ 4 16 км 8/8 330 м +14.4 +11.7 84 +13 +13 1015.7
СВ 4 16 км 10/10 300 м +14.4 +11.7 84 +13 +13 1016.6 1016.0
СВ 5
{9}
16 км 10/10 240 м +14.4 +11.7 84 +13 +13 1016.3
СВ 6
{10}
16 км 10/10 180 м +13.9 +11.7 87 +12 +12 1016.9 1016.3
СВ 5 16 км 10/10 180 м +13.9 +11.7 87 +12 +12 1017.8 1017.3 +13.9 +14.4
СВ 4 16 км 10/10 210 м +14.4 +12.2 87 +13 +13 1018.7 1018.0
В 5 16 км 10/10 300 м +17.8 +13.3 75 +17 +17 1017.7
В 5 16 км 10/10 300 м +18.3 +13.9 76 +18 +18 1017.9 1017.3 +13.9 +18.9
В 4 16 км ясно +18.3 +13.3 73 +19 +30 1017.2 1016.7
В 3 16 км ясно +17.8 +13.3 75 +18 +28 1017.3 1016.7
В 4 14 км 10/10 120 м +14.4 +12.2 87 +13 +13 1017.0 1016.3
В 3 14 км 10/10 90 м +14.4 +12.2 87 +13 +13 1016.3
штиль 0 16 км ясно +13.3 +11.1 87 +13 +13 1017.5 1017.0
В 2 3 км дымка 5/5 60 м +13.3 +11.7 90 +13 +13 1017.0
В 2 2 км дымка 8/8 60 м +13.3 +11.7 90 +13 +13 1017.3
В 2 1 км дымка ?/? +13.3 +11.7 90 +13 +13 1017.3
ЮВ 2 2 км дымка 10/10 60 м +13.3 +11.7 90 +13 +13 1017.7 1017.3
В 2 800 м туман ?/? +13.3 +11.7 90 +13 +13 1017.0
штиль 0 2 км дымка 10/10 60 м +13.0 +12.0 94 +12 +12 1016.7
ЮВ 2 3 км дымка 10/10 60 м +12.8 +11.7 93 +12 +12 1017.3 1016.7
ЮВ 2 2 км дымка 10/10 60 м +12.8 +11.7 93 +12 +12 1016.7
ЮВ 2 5 км дымка 10/10 60 м +12.8 +11.7 93 +12 +12 1016.7
ЮВ 3 16 км 5/5 60 м +12.8 +11.1 89 +11 +11 1016.7
Ю 2 16 км 8/8 120 м +13.0 +12.0 94 +12 +12 1016.7
штиль 0 16 км 8/8 120 м +13.3 +11.7 90 +13 +13 1016.9 1016.3
Ю 2 16 км 10/10 90 м +13.3 +11.7 90 +13 +13 1016.3
Ю 2 2 км дымка 10/10 90 м +12.8 +11.7 93 +12 +12 1016.3
штиль 0 800 м туман ?/? +13.3 +11.7 90 +13 +13 1016.3
ЮЗ 2 800 м туман ?/? +13.3 +11.7 90 +13 +13 1016.6 1016.0 +12.2 +13.9
штиль 0 400 м туман ?/? +13.3 +11.7 90 +13 +13 1016.3
штиль 0 800 м туман ?/? +13.3 +11.7 90 +13 +13 1016.3
Местоположение метеостанции Ocean City Municipal Airport: широта 38.3106 долгота -75.1239 высота над уровнем моря 4 м.
В архиве по умолчанию представлена погода в Оушн-Сити за последние 1-2 суток. Обновление информации о фактической погоде в базе происходит ежечасно! Архивные данные за месяц целиком и за предыдущие месяцы Вы можете получить, выбрав интересующий диапазон дат из раскрывающегося списка и нажав кнопку "Ввод!".
Внимание! Архив погоды МЕТАР в базе сайта по станциям, не включенным в климатический монитор, хранится не более 60 дней. Нет смысла пытаться выбрать более раннюю дату.
*Определитесь, кто Вы:
Внимание! Время в таблицах - местное (без учета летнего времени). Для получения всемирного времени необходимо вычесть поправку, которая равна -5 ч.
Смотрите также архив погоды в соседних городах и на ближайших метеорологических станциях:
Партнеры нашего сайта:      
Пояснения к столбцам:
  • Ветер - указаны скорость ветра в м/с - средняя за 10 мин, порывы в срок и между сроками (в фигурных скобках) и направление, откуда дует ветер: С - северный,
  • СВ - северо-восточный, В - восточный, ЮВ - юго-восточный, Ю - южный, ЮЗ - юго-западный, З - западный, СЗ - северо-западный.
  • Видимость - горизонтальная дальность видимости в метрах или километрах. При видимости от 1 до 10 км при отсутствии осадков обычно наблюдается дымка, при ухудшении видимости до 1 км и менее - туман. В сухую погоду видимость может ухудшаться дымом, пылью или мглою.
  • Явления - указаны атмосферные явления, наблюдавшиеся в срок или в последний час перед сроком; фигурными скобками обозначены явления, наблюдавшиеся между сроками (за 1-3 часа до срока); квадратными скобками обозначены град или гололедные отложения с указанием их диаметра в мм.
  • Облачность - указаны через наклонную черту общая и нижняя облачность в баллах и высота нижней границы облаков в метрах; квадратными скобками обозначены формы облаков: Ci - перистые, Cs - перисто-слоистые, Cc - перисто-кучевые, Ac - высококучевые, As - высокослоистые, Sc - слоисто-кучевые, Ns - слоисто-дождевые, Cu - кучевые, Cb - кучево-дождевые. Подробнее классификацию облаков см. в Атласе облаков (PDF).
  • T - Температура воздуха - температура, измеренная на высоте 2 м над землей.
  • Td - Температура точки росы - температура, при понижении до которой содержащийся в воздухе водяной пар достигнет насыщения.
  • f - Относительная влажность воздуха - влажноcть воздуха, измеренная на высоте 2 м над землей.
  • Te - Эффективная температура - температура, которую ощущает одетый по сезону человек в тени. Характеристика душности погоды. При расчете учитывается влияние влажности воздуха и скорости ветра на теплоощущения человека.
  • Tes - Эффективная температура на солнце - температура, которую ощущает человек, с поправкой на солнечный нагрев. Характеристика знойности погоды. Зависит от высоты солнца над горизонтом, облачности и скорости ветра. Ночью, в пасмурную погоду, а также при ветре 12 м/с и более поправка равна нулю.
  • P - Атмосферное давление - приведенное к уровню моря атмосферное давление.
  • Po - Атмосферное давление - измеренное на уровне метеостанции атмосферное давление.
  • Tmin - Минимальная температура - минимум температуры воздуха на высоте 2 м над землей.
  • Tmax - Максимальная температура - максимум температуры воздуха на высоте 2 м над землей.
  • R - Количество осадков - Количество выпавших осадков за период времени, мм. При наведении курсора мыши на число - период времени, за который выпало указанное количество осадков.
  • R24 - Количество осадков - Количество выпавших осадков за 24 часа, мм.
  • S - Снежный покров - Высота снежного покрова, см. При наведении курсора мыши на число - состояние снежного покрова и степень покрытия местности в баллах.